Year,Month,Day,Hour,Minute,Value (Times are PST for temperature in C)
2006,06,23,00,00,13.40
2006,06,23,00,01,13.40
2006,06,23,00,02,13.30
2006,06,23,00,03,13.30
2006,06,23,00,04,13.30
2006,06,23,00,05,13.20
2006,06,23,00,06,13.20
2006,06,23,00,07,13.10
2006,06,23,00,08,13.10
2006,06,23,00,09,13.00
2006,06,23,00,10,13.00
2006,06,23,00,11,12.90
2006,06,23,00,12,12.90
2006,06,23,00,13,12.90
2006,06,23,00,14,12.90
2006,06,23,00,15,12.90
2006,06,23,00,16,12.90
2006,06,23,00,17,12.90
2006,06,23,00,18,12.90
2006,06,23,00,19,12.80
2006,06,23,00,20,12.80
2006,06,23,00,21,12.80
2006,06,23,00,22,12.70
2006,06,23,00,23,12.70
2006,06,23,00,24,12.70
2006,06,23,00,25,12.60
2006,06,23,00,26,12.60
2006,06,23,00,27,12.60
2006,06,23,00,28,12.60
2006,06,23,00,29,12.60
2006,06,23,00,30,12.60
2006,06,23,00,31,12.60
2006,06,23,00,32,12.60
2006,06,23,00,33,12.60
2006,06,23,00,34,12.60
2006,06,23,00,35,12.60
2006,06,23,00,36,12.50
2006,06,23,00,37,12.60
2006,06,23,00,38,12.60
2006,06,23,00,39,12.60
2006,06,23,00,40,12.60
2006,06,23,00,41,12.50
2006,06,23,00,42,12.50
2006,06,23,00,43,12.50
2006,06,23,00,44,12.50
2006,06,23,00,45,12.50
2006,06,23,00,46,12.50
2006,06,23,00,47,12.50
2006,06,23,00,48,12.50
2006,06,23,00,49,12.40
2006,06,23,00,50,12.40
2006,06,23,00,51,12.30
2006,06,23,00,52,12.30
2006,06,23,00,53,12.30
2006,06,23,00,54,12.30
2006,06,23,00,55,12.30
2006,06,23,00,56,12.30
2006,06,23,00,57,12.30
2006,06,23,00,58,12.30
2006,06,23,00,59,12.30
2006,06,23,01,00,12.30
2006,06,23,01,01,12.30
2006,06,23,01,02,12.30
2006,06,23,01,03,12.30
2006,06,23,01,04,12.30
2006,06,23,01,05,12.20
2006,06,23,01,06,12.20
2006,06,23,01,07,12.20
2006,06,23,01,08,12.20
2006,06,23,01,09,12.20
2006,06,23,01,10,12.20
2006,06,23,01,11,12.20
2006,06,23,01,12,12.20
2006,06,23,01,13,12.20
2006,06,23,01,14,12.20
2006,06,23,01,15,12.10
2006,06,23,01,16,12.10
2006,06,23,01,17,12.20
2006,06,23,01,18,12.20
2006,06,23,01,19,12.30
2006,06,23,01,20,12.30
2006,06,23,01,21,12.30
2006,06,23,01,22,12.30
2006,06,23,01,23,12.40
2006,06,23,01,24,12.40
2006,06,23,01,25,12.40
2006,06,23,01,26,12.40
2006,06,23,01,27,12.40
2006,06,23,01,28,12.40
2006,06,23,01,29,12.40
2006,06,23,01,30,12.40
2006,06,23,01,31,12.30
2006,06,23,01,32,12.30
2006,06,23,01,33,12.30
2006,06,23,01,34,12.20
2006,06,23,01,35,12.20
2006,06,23,01,36,12.10
2006,06,23,01,37,12.10
2006,06,23,01,38,12.10
2006,06,23,01,39,12.00
2006,06,23,01,40,12.00
2006,06,23,01,41,11.90
2006,06,23,01,42,11.90
2006,06,23,01,43,11.90
2006,06,23,01,44,11.90
2006,06,23,01,45,11.90
2006,06,23,01,46,11.80
2006,06,23,01,47,11.80
2006,06,23,01,48,11.80
2006,06,23,01,49,11.80
2006,06,23,01,50,11.80
2006,06,23,01,51,11.80
2006,06,23,01,52,11.80
2006,06,23,01,53,11.80
2006,06,23,01,54,11.80
2006,06,23,01,55,11.80
2006,06,23,01,56,11.80
2006,06,23,01,57,11.80
2006,06,23,01,58,11.80
2006,06,23,01,59,11.80
2006,06,23,02,00,11.80
2006,06,23,02,01,11.80
2006,06,23,02,02,11.80
2006,06,23,02,03,11.80
2006,06,23,02,04,11.80
2006,06,23,02,05,11.80
2006,06,23,02,06,11.80
2006,06,23,02,07,11.80
2006,06,23,02,08,11.80
2006,06,23,02,09,11.80
2006,06,23,02,10,11.80
2006,06,23,02,11,11.80
2006,06,23,02,12,11.80
2006,06,23,02,13,11.80
2006,06,23,02,14,11.80
2006,06,23,02,15,11.80
2006,06,23,02,16,11.80
2006,06,23,02,17,11.80
2006,06,23,02,18,11.80
2006,06,23,02,19,11.90
2006,06,23,02,20,11.90
2006,06,23,02,21,11.90
2006,06,23,02,22,12.00
2006,06,23,02,23,12.00
2006,06,23,02,24,12.10
2006,06,23,02,25,12.10
2006,06,23,02,26,12.10
2006,06,23,02,27,12.20
2006,06,23,02,28,12.20
2006,06,23,02,29,12.20
2006,06,23,02,30,12.20
2006,06,23,02,31,12.10
2006,06,23,02,32,12.10
2006,06,23,02,33,12.10
2006,06,23,02,34,12.10
2006,06,23,02,35,12.20
2006,06,23,02,36,12.20
2006,06,23,02,37,12.20
2006,06,23,02,38,12.20
2006,06,23,02,39,12.20
2006,06,23,02,40,12.20
2006,06,23,02,41,12.20
2006,06,23,02,42,12.10
2006,06,23,02,43,12.10
2006,06,23,02,44,12.10
2006,06,23,02,45,12.10
2006,06,23,02,46,12.00
2006,06,23,02,47,12.00
2006,06,23,02,48,11.90
2006,06,23,02,49,11.90
2006,06,23,02,50,11.90
2006,06,23,02,51,11.90
2006,06,23,02,52,11.80
2006,06,23,02,53,11.80
2006,06,23,02,54,11.80
2006,06,23,02,55,11.80
2006,06,23,02,56,11.80
2006,06,23,02,57,11.70
2006,06,23,02,58,11.70
2006,06,23,02,59,11.70
2006,06,23,03,00,11.70
2006,06,23,03,01,11.70
2006,06,23,03,02,11.60
2006,06,23,03,03,11.60
2006,06,23,03,04,11.60
2006,06,23,03,05,11.60
2006,06,23,03,06,11.60
2006,06,23,03,07,11.60
2006,06,23,03,08,11.60
2006,06,23,03,09,11.60
2006,06,23,03,10,11.60
2006,06,23,03,11,11.60
2006,06,23,03,12,11.60
2006,06,23,03,13,11.60
2006,06,23,03,14,11.60
2006,06,23,03,15,11.60
2006,06,23,03,16,11.60
2006,06,23,03,17,11.60
2006,06,23,03,18,11.60
2006,06,23,03,19,11.50
2006,06,23,03,20,11.50
2006,06,23,03,21,11.50
2006,06,23,03,22,11.40
2006,06,23,03,23,11.40
2006,06,23,03,24,11.40
2006,06,23,03,25,11.40
2006,06,23,03,26,11.30
2006,06,23,03,27,11.30
2006,06,23,03,28,11.30
2006,06,23,03,29,11.30
2006,06,23,03,30,11.30
2006,06,23,03,31,11.30
2006,06,23,03,32,11.30
2006,06,23,03,33,11.40
2006,06,23,03,34,11.40
2006,06,23,03,35,11.40
2006,06,23,03,36,11.30
2006,06,23,03,37,11.30
2006,06,23,03,38,11.30
2006,06,23,03,39,11.30
2006,06,23,03,40,11.30
2006,06,23,03,41,11.30
2006,06,23,03,42,11.30
2006,06,23,03,43,11.30
2006,06,23,03,44,11.30
2006,06,23,03,45,11.30
2006,06,23,03,46,11.20
2006,06,23,03,47,11.20
2006,06,23,03,48,11.20
2006,06,23,03,49,11.20
2006,06,23,03,50,11.20
2006,06,23,03,51,11.20
2006,06,23,03,52,11.10
2006,06,23,03,53,11.10
2006,06,23,03,54,11.10
2006,06,23,03,55,11.00
2006,06,23,03,56,11.00
2006,06,23,03,57,11.00
2006,06,23,03,58,10.90
2006,06,23,03,59,10.90
2006,06,23,04,00,10.90
2006,06,23,04,01,10.90
2006,06,23,04,02,10.80
2006,06,23,04,03,10.80
2006,06,23,04,04,10.80
2006,06,23,04,05,10.80
2006,06,23,04,06,10.80
2006,06,23,04,07,10.70
2006,06,23,04,08,10.70
2006,06,23,04,09,10.70
2006,06,23,04,10,10.70
2006,06,23,04,11,10.70
2006,06,23,04,12,10.60
2006,06,23,04,13,10.60
2006,06,23,04,14,10.60
2006,06,23,04,15,10.60
2006,06,23,04,16,10.50
2006,06,23,04,17,10.50
2006,06,23,04,18,10.50
2006,06,23,04,19,10.40
2006,06,23,04,20,10.40
2006,06,23,04,21,10.40
2006,06,23,04,22,10.40
2006,06,23,04,23,10.40
2006,06,23,04,24,10.40
2006,06,23,04,25,10.30
2006,06,23,04,26,10.30
2006,06,23,04,27,10.30
2006,06,23,04,28,10.30
2006,06,23,04,29,10.30
2006,06,23,04,30,10.30
2006,06,23,04,31,10.20
2006,06,23,04,32,10.20
2006,06,23,04,33,10.20
2006,06,23,04,34,10.20
2006,06,23,04,35,10.20
2006,06,23,04,36,10.20
2006,06,23,04,37,10.20
2006,06,23,04,38,10.10
2006,06,23,04,39,10.10
2006,06,23,04,40,10.10
2006,06,23,04,41,10.10
2006,06,23,04,42,10.00
2006,06,23,04,43,10.00
2006,06,23,04,44,10.00
2006,06,23,04,45,10.00
2006,06,23,04,46,9.90
2006,06,23,04,47,9.90
2006,06,23,04,48,9.90
2006,06,23,04,49,9.90
2006,06,23,04,50,9.90
2006,06,23,04,51,9.80
2006,06,23,04,52,9.80
2006,06,23,04,53,9.80
2006,06,23,04,54,9.80
2006,06,23,04,55,9.80
2006,06,23,04,56,9.80
2006,06,23,04,57,9.80
2006,06,23,04,58,9.80
2006,06,23,04,59,9.80
2006,06,23,05,00,9.90
2006,06,23,05,01,9.90
2006,06,23,05,02,9.90
2006,06,23,05,03,9.90
2006,06,23,05,04,9.90
2006,06,23,05,05,9.90
2006,06,23,05,06,9.90
2006,06,23,05,07,9.90
2006,06,23,05,08,9.90
2006,06,23,05,09,9.90
2006,06,23,05,10,9.90
2006,06,23,05,11,9.90
2006,06,23,05,12,9.90
2006,06,23,05,13,9.90
2006,06,23,05,14,10.00
2006,06,23,05,15,9.90
2006,06,23,05,16,9.90
2006,06,23,05,17,9.90
2006,06,23,05,18,9.90
2006,06,23,05,19,9.90
2006,06,23,05,20,9.90
2006,06,23,05,21,9.90
2006,06,23,05,22,9.90
2006,06,23,05,23,9.90
2006,06,23,05,24,9.90
2006,06,23,05,25,9.80
2006,06,23,05,26,9.80
2006,06,23,05,27,9.80
2006,06,23,05,28,9.80
2006,06,23,05,29,9.80
2006,06,23,05,30,9.80
2006,06,23,05,31,9.80
2006,06,23,05,32,9.80
2006,06,23,05,33,9.80
2006,06,23,05,34,9.80
2006,06,23,05,35,9.80
2006,06,23,05,36,9.80
2006,06,23,05,37,9.80
2006,06,23,05,38,9.80
2006,06,23,05,39,9.80
2006,06,23,05,40,9.80
2006,06,23,05,41,9.80
2006,06,23,05,42,9.80
2006,06,23,05,43,9.80
2006,06,23,05,44,9.80
2006,06,23,05,45,9.80
2006,06,23,05,46,9.80
2006,06,23,05,47,9.80
2006,06,23,05,48,9.80
2006,06,23,05,49,9.80
2006,06,23,05,50,9.80
2006,06,23,05,51,9.90
2006,06,23,05,52,9.90
2006,06,23,05,53,9.90
2006,06,23,05,54,10.00
2006,06,23,05,55,10.00
2006,06,23,05,56,10.00
2006,06,23,05,57,10.00
2006,06,23,05,58,10.10
2006,06,23,05,59,10.10
2006,06,23,06,00,10.10
2006,06,23,06,01,10.10
2006,06,23,06,02,10.10
2006,06,23,06,03,10.20
2006,06,23,06,04,10.20
2006,06,23,06,05,10.20
2006,06,23,06,06,10.20
2006,06,23,06,07,10.20
2006,06,23,06,08,10.20
2006,06,23,06,09,10.20
2006,06,23,06,10,10.20
2006,06,23,06,11,10.20
2006,06,23,06,12,10.20
2006,06,23,06,13,10.20
2006,06,23,06,14,10.20
2006,06,23,06,15,10.30
2006,06,23,06,16,10.30
2006,06,23,06,17,10.30
2006,06,23,06,18,10.30
2006,06,23,06,19,10.30
2006,06,23,06,20,10.40
2006,06,23,06,21,10.40
2006,06,23,06,22,10.40
2006,06,23,06,23,10.50
2006,06,23,06,24,10.50
2006,06,23,06,25,10.50
2006,06,23,06,26,10.50
2006,06,23,06,27,10.60
2006,06,23,06,28,10.60
2006,06,23,06,29,10.60
2006,06,23,06,30,10.70
2006,06,23,06,31,10.70
2006,06,23,06,32,10.70
2006,06,23,06,33,10.80
2006,06,23,06,34,10.80
2006,06,23,06,35,10.80
2006,06,23,06,36,10.80
2006,06,23,06,37,10.80
2006,06,23,06,38,10.80
2006,06,23,06,39,10.80
2006,06,23,06,40,10.80
2006,06,23,06,41,10.80
2006,06,23,06,42,10.80
2006,06,23,06,43,10.80
2006,06,23,06,44,10.80
2006,06,23,06,45,10.80
2006,06,23,06,46,10.80
2006,06,23,06,47,10.80
2006,06,23,06,48,10.80
2006,06,23,06,49,10.80
2006,06,23,06,50,10.90
2006,06,23,06,51,10.90
2006,06,23,06,52,10.90
2006,06,23,06,53,10.90
2006,06,23,06,54,10.90
2006,06,23,06,55,11.00
2006,06,23,06,56,11.00
2006,06,23,06,57,11.10
2006,06,23,06,58,11.10
2006,06,23,06,59,11.20
2006,06,23,07,00,11.30
2006,06,23,07,01,11.30
2006,06,23,07,02,11.30
2006,06,23,07,03,11.40
2006,06,23,07,04,11.40
2006,06,23,07,05,11.50
2006,06,23,07,06,11.60
2006,06,23,07,07,11.70
2006,06,23,07,08,11.80
2006,06,23,07,09,11.80
2006,06,23,07,10,11.80
2006,06,23,07,11,11.90
2006,06,23,07,12,11.90
2006,06,23,07,13,11.90
2006,06,23,07,14,12.00
2006,06,23,07,15,12.00
2006,06,23,07,16,12.10
2006,06,23,07,17,12.20
2006,06,23,07,18,12.20
2006,06,23,07,19,12.30
2006,06,23,07,20,12.30
2006,06,23,07,21,12.40
2006,06,23,07,22,12.40
2006,06,23,07,23,12.50
2006,06,23,07,24,12.50
2006,06,23,07,25,12.60
2006,06,23,07,26,12.60
2006,06,23,07,27,12.70
2006,06,23,07,28,12.80
2006,06,23,07,29,12.80
2006,06,23,07,30,12.80
2006,06,23,07,31,13.00
2006,06,23,07,32,13.10
2006,06,23,07,33,13.20
2006,06,23,07,34,13.30
2006,06,23,07,35,13.40
2006,06,23,07,36,13.60
2006,06,23,07,37,13.70
2006,06,23,07,38,13.80
2006,06,23,07,39,13.80
2006,06,23,07,40,13.90
2006,06,23,07,41,14.00
2006,06,23,07,42,14.10
2006,06,23,07,43,14.20
2006,06,23,07,44,14.20
2006,06,23,07,45,14.20
2006,06,23,07,46,14.30
2006,06,23,07,47,14.30
2006,06,23,07,48,14.40
2006,06,23,07,49,14.40
2006,06,23,07,50,14.40
2006,06,23,07,51,14.50
2006,06,23,07,52,14.50
2006,06,23,07,53,14.50
2006,06,23,07,54,14.60
2006,06,23,07,55,14.60
2006,06,23,07,56,14.60
2006,06,23,07,57,14.70
2006,06,23,07,58,14.70
2006,06,23,07,59,14.80
2006,06,23,08,00,14.80
2006,06,23,08,01,14.90
2006,06,23,08,02,14.90
2006,06,23,08,03,15.00
2006,06,23,08,04,15.00
2006,06,23,08,05,15.00
2006,06,23,08,06,15.10
2006,06,23,08,07,15.20
2006,06,23,08,08,15.20
2006,06,23,08,09,15.20
2006,06,23,08,10,15.20
2006,06,23,08,11,15.20
2006,06,23,08,12,15.20
2006,06,23,08,13,15.20
2006,06,23,08,14,15.10
2006,06,23,08,15,15.00
2006,06,23,08,16,15.00
2006,06,23,08,17,15.00
2006,06,23,08,18,15.00
2006,06,23,08,19,15.00
2006,06,23,08,20,15.00
2006,06,23,08,21,15.00
2006,06,23,08,22,15.00
2006,06,23,08,23,15.00
2006,06,23,08,24,15.10
2006,06,23,08,25,15.10
2006,06,23,08,26,15.10
2006,06,23,08,27,15.20
2006,06,23,08,28,15.30
2006,06,23,08,29,15.30
2006,06,23,08,30,15.40
2006,06,23,08,31,15.40
2006,06,23,08,32,15.40
2006,06,23,08,33,15.40
2006,06,23,08,34,15.40
2006,06,23,08,35,15.40
2006,06,23,08,36,15.40
2006,06,23,08,37,15.40
2006,06,23,08,38,15.40
2006,06,23,08,39,15.40
2006,06,23,08,40,15.50
2006,06,23,08,41,15.60
2006,06,23,08,42,15.60
2006,06,23,08,43,15.60
2006,06,23,08,44,15.60
2006,06,23,08,45,15.70
2006,06,23,08,46,15.70
2006,06,23,08,47,15.70
2006,06,23,08,48,15.70
2006,06,23,08,49,15.70
2006,06,23,08,50,15.70
2006,06,23,08,51,15.60
2006,06,23,08,52,15.60
2006,06,23,08,53,15.60
2006,06,23,08,54,15.60
2006,06,23,08,55,15.60
2006,06,23,08,56,15.60
2006,06,23,08,57,15.60
2006,06,23,08,58,15.60
2006,06,23,08,59,15.60
2006,06,23,09,00,15.60
2006,06,23,09,01,15.60
2006,06,23,09,02,15.60
2006,06,23,09,03,15.70
2006,06,23,09,04,15.70
2006,06,23,09,05,15.60
2006,06,23,09,06,15.60
2006,06,23,09,07,15.60
2006,06,23,09,08,15.60
2006,06,23,09,09,15.60
2006,06,23,09,10,15.70
2006,06,23,09,11,15.70
2006,06,23,09,12,15.70
2006,06,23,09,13,15.80
2006,06,23,09,14,15.80
2006,06,23,09,15,15.80
2006,06,23,09,16,15.80
2006,06,23,09,17,15.70
2006,06,23,09,18,15.70
2006,06,23,09,19,15.70
2006,06,23,09,20,15.70
2006,06,23,09,21,15.70
2006,06,23,09,22,15.80
2006,06,23,09,23,15.80
2006,06,23,09,24,15.90
2006,06,23,09,25,15.90
2006,06,23,09,26,15.90
2006,06,23,09,27,15.90
2006,06,23,09,28,15.90
2006,06,23,09,29,15.90
2006,06,23,09,30,15.90
2006,06,23,09,31,15.90
2006,06,23,09,32,15.90
2006,06,23,09,33,15.90
2006,06,23,09,34,15.90
2006,06,23,09,35,16.00
2006,06,23,09,36,16.00
2006,06,23,09,37,16.10
2006,06,23,09,38,16.20
2006,06,23,09,39,16.20
2006,06,23,09,40,16.20
2006,06,23,09,41,16.10
2006,06,23,09,42,16.10
2006,06,23,09,43,16.20
2006,06,23,09,44,16.20
2006,06,23,09,45,16.20
2006,06,23,09,46,16.20
2006,06,23,09,47,16.20
2006,06,23,09,48,16.20
2006,06,23,09,49,16.20
2006,06,23,09,50,16.30
2006,06,23,09,51,16.40
2006,06,23,09,52,16.60
2006,06,23,09,53,16.70
2006,06,23,09,54,16.80
2006,06,23,09,55,16.80
2006,06,23,09,56,16.80
2006,06,23,09,57,16.80
2006,06,23,09,58,16.80
2006,06,23,09,59,16.70
2006,06,23,10,00,16.70
2006,06,23,10,01,16.70
2006,06,23,10,02,16.60
2006,06,23,10,03,16.60
2006,06,23,10,04,16.60
2006,06,23,10,05,16.60
2006,06,23,10,06,16.60
2006,06,23,10,07,16.60
2006,06,23,10,08,16.60
2006,06,23,10,09,16.70
2006,06,23,10,10,16.80
2006,06,23,10,11,16.80
2006,06,23,10,12,16.90
2006,06,23,10,13,17.00
2006,06,23,10,14,17.20
2006,06,23,10,15,17.20
2006,06,23,10,16,17.30
2006,06,23,10,17,17.20
2006,06,23,10,18,17.20
2006,06,23,10,19,17.20
2006,06,23,10,20,17.10
2006,06,23,10,21,17.00
2006,06,23,10,22,17.00
2006,06,23,10,23,17.00
2006,06,23,10,24,17.00
2006,06,23,10,25,17.00
2006,06,23,10,26,17.00
2006,06,23,10,27,17.00
2006,06,23,10,28,17.10
2006,06,23,10,29,17.10
2006,06,23,10,30,17.10
2006,06,23,10,31,17.10
2006,06,23,10,32,17.20
2006,06,23,10,33,17.30
2006,06,23,10,34,17.40
2006,06,23,10,35,17.40
2006,06,23,10,36,17.40
2006,06,23,10,37,17.40
2006,06,23,10,38,17.50
2006,06,23,10,39,17.60
2006,06,23,10,40,17.60
2006,06,23,10,41,17.70
2006,06,23,10,42,17.70
2006,06,23,10,43,17.70
2006,06,23,10,44,17.60
2006,06,23,10,45,17.60
2006,06,23,10,46,17.60
2006,06,23,10,47,17.60
2006,06,23,10,48,17.60
2006,06,23,10,49,17.70
2006,06,23,10,50,17.80
2006,06,23,10,51,17.80
2006,06,23,10,52,17.80
2006,06,23,10,53,17.80
2006,06,23,10,54,17.80
2006,06,23,10,55,17.80
2006,06,23,10,56,17.80
2006,06,23,10,57,17.70
2006,06,23,10,58,17.60
2006,06,23,10,59,17.60
2006,06,23,11,00,17.60
2006,06,23,11,01,17.60
2006,06,23,11,02,17.50
2006,06,23,11,03,17.50
2006,06,23,11,04,17.60
2006,06,23,11,05,17.60
2006,06,23,11,06,17.60
2006,06,23,11,07,17.50
2006,06,23,11,08,17.40
2006,06,23,11,09,17.40
2006,06,23,11,10,17.40
2006,06,23,11,11,17.40
2006,06,23,11,12,17.50
2006,06,23,11,13,17.50
2006,06,23,11,14,17.40
2006,06,23,11,15,17.40
2006,06,23,11,16,17.40
2006,06,23,11,17,17.50
2006,06,23,11,18,17.50
2006,06,23,11,19,17.50
2006,06,23,11,20,17.50
2006,06,23,11,21,17.50
2006,06,23,11,22,17.40
2006,06,23,11,23,17.30
2006,06,23,11,24,17.20
2006,06,23,11,25,17.20
2006,06,23,11,26,17.30
2006,06,23,11,27,17.50
2006,06,23,11,28,17.50
2006,06,23,11,29,17.60
2006,06,23,11,30,17.60
2006,06,23,11,31,17.60
2006,06,23,11,32,17.60
2006,06,23,11,33,17.40
2006,06,23,11,34,17.40
2006,06,23,11,35,17.30
2006,06,23,11,36,17.30
2006,06,23,11,37,17.30
2006,06,23,11,38,17.40
2006,06,23,11,39,17.50
2006,06,23,11,40,17.50
2006,06,23,11,41,17.40
2006,06,23,11,42,17.40
2006,06,23,11,43,17.50
2006,06,23,11,44,17.60
2006,06,23,11,45,17.60
2006,06,23,11,46,17.60
2006,06,23,11,47,17.50
2006,06,23,11,48,17.50
2006,06,23,11,49,17.50
2006,06,23,11,50,17.40
2006,06,23,11,51,17.40
2006,06,23,11,52,17.40
2006,06,23,11,53,17.40
2006,06,23,11,54,17.40
2006,06,23,11,55,17.40
2006,06,23,11,56,17.50
2006,06,23,11,57,17.50
2006,06,23,11,58,17.60
2006,06,23,11,59,17.80
2006,06,23,12,00,18.00
2006,06,23,12,01,18.00
2006,06,23,12,02,17.90
2006,06,23,12,03,17.80
2006,06,23,12,04,17.70
2006,06,23,12,05,17.70
2006,06,23,12,06,17.70
2006,06,23,12,07,17.70
2006,06,23,12,08,17.60
2006,06,23,12,09,17.60
2006,06,23,12,10,17.70
2006,06,23,12,11,17.80
2006,06,23,12,12,17.70
2006,06,23,12,13,17.80
2006,06,23,12,14,18.00
2006,06,23,12,15,18.00
2006,06,23,12,16,18.00
2006,06,23,12,17,18.00
2006,06,23,12,18,18.10
2006,06,23,12,19,18.20
2006,06,23,12,20,18.20
2006,06,23,12,21,18.30
2006,06,23,12,22,18.30
2006,06,23,12,23,18.30
2006,06,23,12,24,18.30
2006,06,23,12,25,18.30
2006,06,23,12,26,18.30
2006,06,23,12,27,18.30
2006,06,23,12,28,18.40
2006,06,23,12,29,18.50
2006,06,23,12,30,18.60
2006,06,23,12,31,18.70
2006,06,23,12,32,18.70
2006,06,23,12,33,18.80
2006,06,23,12,34,18.80
2006,06,23,12,35,18.80
2006,06,23,12,36,18.90
2006,06,23,12,37,18.90
2006,06,23,12,38,18.90
2006,06,23,12,39,18.90
2006,06,23,12,40,18.90
2006,06,23,12,41,18.80
2006,06,23,12,42,18.90
2006,06,23,12,43,19.00
2006,06,23,12,44,19.10
2006,06,23,12,45,19.20
2006,06,23,12,46,19.20
2006,06,23,12,47,19.20
2006,06,23,12,48,19.20
2006,06,23,12,49,19.10
2006,06,23,12,50,19.10
2006,06,23,12,51,19.10
2006,06,23,12,52,19.10
2006,06,23,12,53,19.10
2006,06,23,12,54,19.10
2006,06,23,12,55,19.20
2006,06,23,12,56,19.20
2006,06,23,12,57,19.20
2006,06,23,12,58,19.30
2006,06,23,12,59,19.30
2006,06,23,13,00,19.30
2006,06,23,13,01,19.40
2006,06,23,13,02,19.40
2006,06,23,13,03,19.50
2006,06,23,13,04,19.50
2006,06,23,13,05,19.50
2006,06,23,13,06,19.50
2006,06,23,13,07,19.50
2006,06,23,13,08,19.60
2006,06,23,13,09,19.60
2006,06,23,13,10,19.60
2006,06,23,13,11,19.60
2006,06,23,13,12,19.60
2006,06,23,13,13,19.70
2006,06,23,13,14,19.80
2006,06,23,13,15,19.80
2006,06,23,13,16,19.70
2006,06,23,13,17,19.60
2006,06,23,13,18,19.40
2006,06,23,13,19,19.30
2006,06,23,13,20,19.40
2006,06,23,13,21,19.40
2006,06,23,13,22,19.50
2006,06,23,13,23,19.50
2006,06,23,13,24,19.70
2006,06,23,13,25,19.80
2006,06,23,13,26,19.90
2006,06,23,13,27,20.10
2006,06,23,13,28,20.30
2006,06,23,13,29,20.40
2006,06,23,13,30,20.40
2006,06,23,13,31,20.40
2006,06,23,13,32,20.50
2006,06,23,13,33,20.60
2006,06,23,13,34,20.60
2006,06,23,13,35,20.60
2006,06,23,13,36,20.60
2006,06,23,13,37,20.70
2006,06,23,13,38,20.80
2006,06,23,13,39,20.90
2006,06,23,13,40,20.90
2006,06,23,13,41,20.80
2006,06,23,13,42,20.90
2006,06,23,13,43,21.00
2006,06,23,13,44,21.00
2006,06,23,13,45,21.00
2006,06,23,13,46,21.10
2006,06,23,13,47,21.00
2006,06,23,13,48,21.00
2006,06,23,13,49,20.90
2006,06,23,13,50,20.90
2006,06,23,13,51,20.90
2006,06,23,13,52,20.90
2006,06,23,13,53,20.90
2006,06,23,13,54,20.80
2006,06,23,13,55,20.80
2006,06,23,13,56,20.80
2006,06,23,13,57,20.80
2006,06,23,13,58,20.80
2006,06,23,13,59,20.90
2006,06,23,14,00,21.00
2006,06,23,14,01,21.00
2006,06,23,14,02,21.10
2006,06,23,14,03,21.10
2006,06,23,14,04,21.20
2006,06,23,14,05,21.30
2006,06,23,14,06,21.20
2006,06,23,14,07,21.20
2006,06,23,14,08,21.20
2006,06,23,14,09,21.20
2006,06,23,14,10,21.20
2006,06,23,14,11,21.10
2006,06,23,14,12,21.10
2006,06,23,14,13,21.10
2006,06,23,14,14,21.20
2006,06,23,14,15,21.20
2006,06,23,14,16,21.30
2006,06,23,14,17,21.40
2006,06,23,14,18,21.40
2006,06,23,14,19,21.50
2006,06,23,14,20,21.50
2006,06,23,14,21,21.50
2006,06,23,14,22,21.50
2006,06,23,14,23,21.60
2006,06,23,14,24,21.70
2006,06,23,14,25,21.70
2006,06,23,14,26,21.80
2006,06,23,14,27,21.90
2006,06,23,14,28,21.90
2006,06,23,14,29,21.80
2006,06,23,14,30,21.70
2006,06,23,14,31,21.70
2006,06,23,14,32,21.60
2006,06,23,14,33,21.60
2006,06,23,14,34,21.60
2006,06,23,14,35,21.60
2006,06,23,14,36,21.60
2006,06,23,14,37,21.70
2006,06,23,14,38,21.80
2006,06,23,14,39,21.70
2006,06,23,14,40,21.70
2006,06,23,14,41,21.80
2006,06,23,14,42,21.80
2006,06,23,14,43,21.90
2006,06,23,14,44,21.90
2006,06,23,14,45,21.80
2006,06,23,14,46,21.80
2006,06,23,14,47,21.80
2006,06,23,14,48,21.80
2006,06,23,14,49,21.80
2006,06,23,14,50,21.80
2006,06,23,14,51,21.80
2006,06,23,14,52,21.70
2006,06,23,14,53,21.80
2006,06,23,14,54,21.80
2006,06,23,14,55,22.00
2006,06,23,14,56,22.00
2006,06,23,14,57,22.00
2006,06,23,14,58,22.10
2006,06,23,14,59,22.10
2006,06,23,15,00,22.10
2006,06,23,15,01,22.10
2006,06,23,15,02,22.00
2006,06,23,15,03,21.90
2006,06,23,15,04,22.00
2006,06,23,15,05,22.00
2006,06,23,15,06,22.00
2006,06,23,15,07,22.00
2006,06,23,15,08,21.90
2006,06,23,15,09,21.90
2006,06,23,15,10,21.80
2006,06,23,15,11,21.90
2006,06,23,15,12,21.90
2006,06,23,15,13,21.80
2006,06,23,15,14,21.80
2006,06,23,15,15,21.80
2006,06,23,15,16,21.70
2006,06,23,15,17,21.70
2006,06,23,15,18,21.70
2006,06,23,15,19,21.70
2006,06,23,15,20,21.60
2006,06,23,15,21,21.70
2006,06,23,15,22,21.70
2006,06,23,15,23,21.70
2006,06,23,15,24,21.70
2006,06,23,15,25,21.70
2006,06,23,15,26,21.80
2006,06,23,15,27,21.80
2006,06,23,15,28,21.80
2006,06,23,15,29,21.80
2006,06,23,15,30,21.80
2006,06,23,15,31,21.80
2006,06,23,15,32,21.80
2006,06,23,15,33,21.90
2006,06,23,15,34,21.90
2006,06,23,15,35,21.90
2006,06,23,15,36,21.90
2006,06,23,15,37,21.90
2006,06,23,15,38,21.90
2006,06,23,15,39,21.90
2006,06,23,15,40,21.90
2006,06,23,15,41,22.00
2006,06,23,15,42,21.90
2006,06,23,15,43,21.90
2006,06,23,15,44,21.90
2006,06,23,15,45,21.90
2006,06,23,15,46,21.80
2006,06,23,15,47,21.80
2006,06,23,15,48,21.80
2006,06,23,15,49,21.90
2006,06,23,15,50,21.90
2006,06,23,15,51,22.00
2006,06,23,15,52,22.00
2006,06,23,15,53,22.10
2006,06,23,15,54,22.10
2006,06,23,15,55,22.20
2006,06,23,15,56,22.30
2006,06,23,15,57,22.30
2006,06,23,15,58,22.30
2006,06,23,15,59,22.20
2006,06,23,16,00,22.00
2006,06,23,16,01,21.90
2006,06,23,16,02,21.90
2006,06,23,16,03,21.90
2006,06,23,16,04,22.00
2006,06,23,16,05,22.10
2006,06,23,16,06,22.10
2006,06,23,16,07,22.20
2006,06,23,16,08,22.20
2006,06,23,16,09,22.30
2006,06,23,16,10,22.30
2006,06,23,16,11,22.30
2006,06,23,16,12,22.40
2006,06,23,16,13,22.40
2006,06,23,16,14,22.30
2006,06,23,16,15,22.20
2006,06,23,16,16,22.20
2006,06,23,16,17,22.10
2006,06,23,16,18,22.00
2006,06,23,16,19,21.90
2006,06,23,16,20,21.90
2006,06,23,16,21,21.90
2006,06,23,16,22,21.80
2006,06,23,16,23,21.80
2006,06,23,16,24,21.90
2006,06,23,16,25,22.00
2006,06,23,16,26,22.10
2006,06,23,16,27,22.20
2006,06,23,16,28,22.30
2006,06,23,16,29,22.30
2006,06,23,16,30,22.40
2006,06,23,16,31,22.50
2006,06,23,16,32,22.60
2006,06,23,16,33,22.40
2006,06,23,16,34,22.20
2006,06,23,16,35,22.10
2006,06,23,16,36,22.10
2006,06,23,16,37,22.10
2006,06,23,16,38,22.20
2006,06,23,16,39,22.30
2006,06,23,16,40,22.30
2006,06,23,16,41,22.40
2006,06,23,16,42,22.40
2006,06,23,16,43,22.60
2006,06,23,16,44,22.70
2006,06,23,16,45,22.80
2006,06,23,16,46,22.80
2006,06,23,16,47,22.90
2006,06,23,16,48,23.00
2006,06,23,16,49,23.20
2006,06,23,16,50,23.20
2006,06,23,16,51,23.30
2006,06,23,16,52,23.40
2006,06,23,16,53,23.50
2006,06,23,16,54,23.60
2006,06,23,16,55,23.60
2006,06,23,16,56,23.60
2006,06,23,16,57,23.70
2006,06,23,16,58,23.80
2006,06,23,16,59,23.80
2006,06,23,17,00,23.80
2006,06,23,17,01,23.70
2006,06,23,17,02,23.60
2006,06,23,17,03,23.50
2006,06,23,17,04,23.40
2006,06,23,17,05,23.30
2006,06,23,17,06,23.20
2006,06,23,17,07,23.10
2006,06,23,17,08,23.00
2006,06,23,17,09,22.90
2006,06,23,17,10,22.90
2006,06,23,17,11,22.90
2006,06,23,17,12,23.00
2006,06,23,17,13,22.90
2006,06,23,17,14,22.80
2006,06,23,17,15,22.90
2006,06,23,17,16,22.90
2006,06,23,17,17,22.90
2006,06,23,17,18,23.00
2006,06,23,17,19,23.00
2006,06,23,17,20,23.00
2006,06,23,17,21,23.00
2006,06,23,17,22,22.90